FW9465 Weather Reports


Display with metric or nautical units.
time (UTC)temp
F
wind
direction
speed
MPH
gust
MPH
rain 1hr
in
rain 24hr
in
rain mn
in
humidity
%
barometer
mb
20260508055939 59 157 0.0 0.0 0.00 0.00 0.00 80 1015.5
20260508054023 59 202 0.0 0.0 0.00 0.00 0.00 80 1015.5
20260508053023 59 201 1.0 2.0 0.00 0.00 0.00 81 1016.0
20260508052025 59 202 2.0 4.0 0.00 0.00 0.00 81 1015.9
20260508050050 59 157 0.0 0.0 0.00 0.00 0.00 81 1015.7
20260508045133 59 157 1.0 3.0 0.00 0.00 0.00 80 1015.6
20260508044148 60 247 0.0 0.0 0.00 0.00 0.00 80 1015.7
20260508043151 60 157 0.0 0.0 0.00 0.00 0.00 79 1015.8
20260508042235 60 157 0.0 0.0 0.00 0.00 0.00 79 1015.7
20260508041332 60 157 0.0 0.0 0.00 0.00 0.00 79 1015.8
20260508040333 60 204 2.0 4.0 0.00 0.00 0.00 79 1016.0
20260508035432 60 157 0.0 1.0 0.00 0.00 0.00 79 1015.6
20260508032435 60 157 0.0 0.0 0.00 0.00 0.00 77 1015.5
20260508031453 61 157 0.0 0.0 0.00 0.00 0.00 76 1015.3
20260508030451 61 157 0.0 0.0 0.00 0.00 0.00 76 1015.2
20260508025435 61 157 0.0 0.0 0.00 0.00 0.00 75 1015.0
20260508024448 61 157 0.0 0.0 0.00 0.00 0.00 74 1015.0
20260508023434 61 157 0.0 1.0 0.00 0.00 0.00 75 1014.9
20260508021534 62 157 0.0 1.0 0.00 0.00 0.00 73 1014.8
20260508014635 63 157 0.0 1.0 0.00 0.00 0.00 71 1014.7
20260508013734 64 157 0.0 0.0 0.00 0.00 0.00 70 1014.8
20260508012736 64 157 1.0 3.0 0.00 0.00 0.00 68 1014.8
20260508010734 65 180 0.0 2.0 0.00 0.00 0.00 67 1014.8
20260508005749 65 157 2.0 4.0 0.00 0.00 0.00 66 1014.7
20260508004833 66 159 2.0 4.0 0.00 0.00 0.00 65 1014.9
20260508003932 67 165 3.0 6.0 0.00 0.00 0.00 63 1014.9
20260508002935 67 159 2.0 4.0 0.00 0.00 0.00 61 1014.7
20260508001050 69 157 3.0 5.0 0.00 0.00 0.00 58 1014.9
20260508000134 69 169 3.0 6.0 0.00 0.00 0.00 57 1014.8
20260507235134 69 207 0.0 0.0 0.00 0.00 0.00 56 1015.0
20260507234134 69 167 2.0 5.0 0.00 0.00 0.00 56 1014.9
20260507233132 69 179 5.0 8.0 0.00 0.00 0.00 57 1015.1
20260507232132 70 160 6.0 9.0 0.00 0.00 0.00 56 1014.9
20260507231134 70 176 3.0 6.0 0.00 0.00 0.00 51 1015.1
20260507225232 70 176 3.0 6.0 0.00 0.00 0.00 52 1015.2
20260507223232 69 159 3.0 5.0 0.00 0.00 0.00 50 1015.5
20260507222235 69 157 4.0 6.0 0.00 0.00 0.00 52 1015.4
20260507221333 69 151 2.0 3.0 0.00 0.00 0.00 49 1015.5
20260507220336 70 157 5.0 7.0 0.00 0.00 0.00 50 1015.5
20260507215333 70 144 4.0 5.0 0.00 0.00 0.00 49 1015.4
20260507214334 71 149 5.0 6.0 0.00 0.00 0.00 47 1015.5
20260507213432 71 153 4.0 5.0 0.00 0.03 0.00 48 1015.6
20260507212436 71 133 1.0 3.0 0.00 0.03 0.00 48 1015.7
20260507211534 71 148 5.0 7.0 0.00 0.03 0.00 48 1016.0
20260507210533 72 137 3.0 5.0 0.00 0.03 0.00 48 1016.1
20260507205533 72 142 3.0 7.0 0.00 0.03 0.00 46 1016.3
20260507204534 71 114 2.0 5.0 0.00 0.03 0.00 46 1016.2
20260507203532 71 101 4.0 5.0 0.00 0.03 0.00 45 1016.2
20260507202549 71 344 0.0 2.0 0.00 0.03 0.00 46 1016.1
20260507201534 71 33 1.0 6.0 0.00 0.03 0.00 46 1015.8
20260507194634 70 65 4.0 6.0 0.00 0.03 0.00 46 1016.7
20260507193731 69 90 1.0 4.0 0.00 0.03 0.00 47 1016.7
20260507192733 70 72 6.0 8.0 0.00 0.03 0.00 45 1016.8
20260507191832 70 6 6.0 10.0 0.00 0.03 0.00 47 1017.1
20260507190834 69 31 7.0 9.0 0.00 0.03 0.00 46 1017.4
20260507185834 69 45 1.0 3.0 0.00 0.03 0.00 47 1017.5
20260507184932 70 13 6.0 9.0 0.00 0.03 0.00 47 1017.4
20260507183949 69 24 5.0 9.0 0.00 0.03 0.00 48 1017.5
20260507182035 68 27 9.0 13.0 0.00 0.03 0.00 48 1017.4
20260507181033 68 46 5.0 8.0 0.00 0.03 0.00 47 1017.2
20260507180033 67 32 5.0 11.0 0.00 0.03 0.00 49 1017.7
20260507175033 67 20 8.0 13.0 0.00 0.03 0.00 50 1017.7
20260507174033 67 19 7.0 11.0 0.00 0.03 0.00 52 1018.0
20260507172033 66 353 8.0 13.0 0.00 0.03 0.00 55 1018.0
20260507171031 65 350 9.0 13.0 0.00 0.03 0.00 55 1018.6
20260507170033 65 5 6.0 11.0 0.00 0.03 0.00 55 1018.8
20260507165032 65 9 5.0 6.0 0.00 0.03 0.00 56 1019.2
20260507163036 64 18 9.0 11.0 0.00 0.04 0.00 58 1019.5
20260507162033 64 320 8.0 9.0 0.00 0.04 0.00 60 1019.5
20260507161131 63 8 4.0 7.0 0.00 0.04 0.00 62 1019.5
20260507160148 63 15 4.0 6.0 0.00 0.04 0.00 65 1019.7
20260507155232 63 22 4.0 6.0 0.00 0.04 0.00 64 1019.5
20260507154232 63 15 5.0 9.0 0.00 0.04 0.00 64 1019.3
20260507153232 63 344 4.0 7.0 0.00 0.04 0.00 64 1019.5
20260507152233 62 40 4.0 7.0 0.00 0.04 0.00 66 1019.6
20260507151331 62 325 7.0 9.0 0.00 0.04 0.00 66 1019.8
20260507150333 62 38 5.0 8.0 0.00 0.04 0.00 65 1019.9
20260507145432 62 40 5.0 8.0 0.00 0.04 0.00 65 1019.9
20260507144431 61 21 5.0 7.0 0.00 0.06 0.00 65 1019.9
20260507142448 60 6 5.0 6.0 0.00 0.07 0.00 71 1020.1
20260507141448 59 21 3.0 6.0 0.00 0.07 0.00 73 1020.1
20260507140447 58 339 2.0 4.0 0.00 0.07 0.00 76 1020.2
20260507135448 57 327 3.0 5.0 0.00 0.07 0.00 79 1020.1
20260507134534 56 22 1.0 4.0 0.00 0.07 0.00 80 1020.3
20260507133531 55 335 2.0 5.0 0.00 0.07 0.00 83 1020.4
20260507132549 54 337 3.0 4.0 0.00 0.07 0.00 86 1020.4
20260507131535 54 328 1.0 3.0 0.00 0.07 0.00 87 1020.4
20260507130547 53 294 0.0 0.0 0.00 0.07 0.00 90 1020.2
20260507125533 52 225 0.0 0.0 0.00 0.07 0.00 89 1020.2
20260507124633 52 225 0.0 0.0 0.00 0.07 0.00 89 1020.3
20260507123634 51 225 0.0 0.0 0.00 0.07 0.00 90 1020.0
20260507122647 50 225 0.0 0.0 0.00 0.07 0.00 91 1019.9
20260507121650 50 270 0.0 0.0 0.00 0.07 0.00 90 1019.9
20260507120632 50 265 1.0 2.0 0.00 0.07 0.00 89 1020.1
20260507115648 50 292 0.0 0.0 0.00 0.07 0.00 91 1020.0
20260507114633 50 292 4.0 6.0 0.00 0.07 0.00 90 1020.2
20260507113632 50 296 2.0 3.0 0.00 0.07 0.00 91 1019.9
20260507111632 50 292 0.0 2.0 0.00 0.07 0.00 91 1019.5
20260507110633 50 316 3.0 6.0 0.00 0.07 0.00 91 1019.4
20260507105632 51 309 4.0 7.0 0.00 0.07 0.00 90 1019.3
20260507103632 51 300 6.0 8.0 0.00 0.07 0.00 89 1019.1
20260507102632 51 299 3.0 4.0 0.00 0.07 0.00 88 1019.0
20260507101731 51 304 4.0 6.0 0.00 0.07 0.00 88 1018.8
20260507100733 52 314 1.0 2.0 0.00 0.07 0.00 87 1018.9
20260507095831 52 332 4.0 5.0 0.00 0.07 0.00 86 1018.6
20260507094930 52 337 1.0 3.0 0.00 0.07 0.00 87 1018.6
20260507093947 52 315 2.0 3.0 0.00 0.07 0.00 86 1018.3
20260507092931 52 324 4.0 4.0 0.00 0.07 0.00 86 1018.1
20260507091032 53 337 2.0 3.0 0.00 0.07 0.00 84 1017.9
20260507090033 53 360 0.0 0.0 0.00 0.07 0.00 85 1017.9
20260507085048 53 360 1.0 3.0 0.00 0.07 0.00 85 1017.6
20260507084131 53 6 4.0 5.0 0.00 0.07 0.00 84 1017.2
20260507083146 53 1 5.0 7.0 0.00 0.07 0.00 85 1017.2
20260507082149 53 7 6.0 8.0 0.00 0.07 0.00 84 1017.4
20260507080233 54 8 3.0 5.0 0.00 0.07 0.00 84 1017.9
20260507075230 54 17 4.0 7.0 0.00 0.07 0.00 84 1017.4
20260507073232 54 342 5.0 7.0 0.00 0.07 0.00 83 1017.5
20260507072232 55 340 4.0 8.0 0.00 0.07 0.00 82 1017.4
20260507071330 55 339 4.0 7.0 0.00 0.07 0.00 81 1017.3
20260507065347 56 19 5.0 7.0 0.00 0.07 0.00 79 1017.1
20260507064348 56 26 7.0 9.0 0.00 0.07 0.00 79 1016.7
20260507063432 56 22 6.0 7.0 0.00 0.07 0.00 79 1016.7
20260507062431 56 20 7.0 9.0 0.00 0.07 0.00 78 1016.8
20260507061432 57 22 4.0 5.0 0.00 0.07 0.00 78 1016.6